Location: Helsinki
(60.1699°N, 24.9384°E)
Time: 15:56:20
(UTC+02:00)

Tiros 1 - Pass Details

Date: 03 October 2022
Orbit: 629 x 662 km, 48.4° (Epoch: 07 December)

Event Time Altitude Azimuth Distance (km) Brightness Sun altitude
Rises 02:52:58 0° 235° (SW) 2,988 - -30.3°
Reaches altitude 10° 02:55:51 10° 218° (SW) 2,073 - -30.2°
Maximum altitude 02:59:14 19° 173° (S) 1,539 - -29.9°
Drops below altitude 10° 03:02:36 10° 128° (SE) 2,063 - -29.7°
Exits shadow 03:04:22 - 116° (ESE) 2,600 10.3 -29.6°
Sets 03:05:28 0° 111° (ESE) 2,968 10.7 -29.5°
